User: anonymous   Login
Location: Unspecified
(0.0000°N, 0.0000°E)
Time: 20:53:01
(UTC+01:00)
Language:

Cosmos 1538 Rocket - Orbit

View from above orbital plane
View from above orbital plane
View from above satellite
View from above satellite

Ground track
Ground track

The orbit data is extracted from the following two-line orbital elements,

1 14760U 84019B   14327.20122042  .00000197  00000-0  76987-4 0  4724
2 14760 074.0454 040.4505 0026744 131.5799 291.5923 14.35580070609111
Epoch (UTC): 23 November 2014 04:49:45
Eccentricity: 0.0026744
inclination: 74.0454°
perigee height: 754 km
apogee height: 792 km
right ascension of ascending node: 40.4505°
argument of perigee: 131.5799°
revolutions per day: 14.35580070
mean anomaly at epoch: 291.5923°
orbit number at epoch: 60911

The dashed part of the orbit path shows where the satellite is in the earth's shadow,  

DLR